TimeCDT,TemperatureF,Dew PointF,Humidity,Sea Level PressureIn,VisibilityMPH,Wind Direction,Wind SpeedMPH,Gust SpeedMPH,PrecipitationIn,Events,Conditions,WindDirDegrees,DateUTC
12:58 AM,63.9,61.2,91,30.16,10.0,East,4.6,-,N/A,,Clear,80,2013-07-15 05:58:00
1:58 AM,63.3,61.2,93,30.16,10.0,East,3.5,-,N/A,,Clear,100,2013-07-15 06:58:00
2:58 AM,61.0,60.4,98,30.17,10.0,East,4.6,-,N/A,,Clear,100,2013-07-15 07:58:00
3:58 AM,59.9,59.5,99,30.16,10.0,East,4.6,-,N/A,,Clear,90,2013-07-15 08:58:00
4:58 AM,60.6,60.3,99,30.16,10.0,ENE,2.3,-,N/A,,Clear,70,2013-07-15 09:58:00
5:58 AM,59.9,59.5,99,30.18,10.0,Calm,Calm,-,N/A,,Clear,0,2013-07-15 10:58:00
6:58 AM,64.9,63.7,96,30.19,10.0,Calm,Calm,-,N/A,,Clear,0,2013-07-15 11:58:00
7:58 AM,70.7,65.1,82,30.20,10.0,NE,3.5,-,N/A,,Clear,50,2013-07-15 12:58:00
8:58 AM,75.0,65.7,73,30.20,10.0,East,3.5,-,N/A,,Clear,100,2013-07-15 13:58:00
9:58 AM,79.3,67.8,68,30.19,10.0,Variable,2.3,-,N/A,,Clear,0,2013-07-15 14:58:00
10:58 AM,83.5,70.2,64,30.19,10.0,ESE,5.8,-,N/A,,Clear,110,2013-07-15 15:58:00
11:58 AM,84.2,70.2,63,30.19,10.0,ESE,10.4,-,N/A,,Partly Cloudy,120,2013-07-15 16:58:00
12:58 PM,85.6,70.0,59,30.18,10.0,ESE,9.2,-,N/A,,Scattered Clouds,120,2013-07-15 17:58:00
1:58 PM,85.6,68.2,56,30.16,10.0,East,9.2,-,N/A,,Partly Cloudy,100,2013-07-15 18:58:00
2:48 PM,87.8,66.2,49,30.16,10.0,SSE,11.5,-,N/A,,Light Drizzle,150,2013-07-15 19:48:00
2:58 PM,86.9,66.4,50,30.14,10.0,ESE,9.2,-,0.00,,Partly Cloudy,120,2013-07-15 19:58:00
3:58 PM,86.7,69.3,56,30.14,10.0,ESE,9.2,-,N/A,,Scattered Clouds,110,2013-07-15 20:58:00
4:58 PM,86.4,67.6,53,30.14,10.0,SSE,10.4,-,N/A,,Partly Cloudy,150,2013-07-15 21:58:00
5:13 PM,87.8,69.8,55,30.14,10.0,South,4.6,-,N/A,,Light Drizzle,170,2013-07-15 22:13:00
5:24 PM,84.2,68.0,58,30.13,10.0,East,8.1,-,N/A,,Mostly Cloudy,90,2013-07-15 22:24:00
5:58 PM,87.4,68.5,53,30.11,10.0,SSE,10.4,-,0.00,,Partly Cloudy,150,2013-07-15 22:58:00
6:58 PM,86.9,67.6,53,30.11,10.0,ESE,10.4,-,N/A,,Clear,120,2013-07-15 23:58:00
7:58 PM,84.9,67.8,56,30.09,10.0,SE,3.5,-,N/A,,Clear,140,2013-07-16 00:58:00
8:58 PM,79.7,69.8,72,30.09,10.0,SE,5.8,-,N/A,,Clear,140,2013-07-16 01:58:00
9:58 PM,73.9,68.9,84,30.14,10.0,ESE,3.5,-,N/A,,Clear,120,2013-07-16 02:58:00
10:58 PM,78.1,68.4,72,30.16,10.0,ESE,3.5,-,N/A,,Clear,120,2013-07-16 03:58:00
11:58 PM,71.1,69.3,94,30.17,10.0,East,5.8,-,N/A,,Clear,100,2013-07-16 04:58:00